Location: Gollag?dem
(16.8053°N, 80.8024°E)
Time: 18:15:10
(UTC+00:00)

ATLAS 5 CENTAUR R/B - Pass Details

Date: 13 August 2020
Orbit: 236 x 12883 km, 20.1° (Epoch: 17 September)

Event Time Altitude Azimuth Distance (km) Brightness Sun altitude
Rises 15:17:49 0° 235° (SW) 2,686 4.6 -30.8°
Reaches altitude 10° 15:19:15 10° 229° (SW) 2,128 4.0 -31.1°
Enters shadow 15:20:12 19° 222° (SW) 1,814 3.5 -31.3°
Exits shadow 15:43:31 - 78° (ENE) 8,279 6.4 -36.1°
Sets 15:55:40 0° 76° (ENE) 11,660 7.2 -38.5°
